Location: *
(39.6167°S, 171.5333°W)
Time: 22:15:38
(UTC+00:00)

NOAA 12 - Pass Details

Date: 13 May 2021
Orbit: 796 x 815 km, 98.5° (Epoch: 15 June)

Event Time Altitude Azimuth Distance (km) Brightness Sun altitude
Rises 17:04:40 0° 4° (N) 3,319 7.5 -15.1°
Reaches altitude 10° 17:07:02 10° 360° (N) 2,399 6.7 -14.6°
Maximum altitude 17:12:16 58° 281° (W) 953 4.2 -13.6°
Drops below altitude 10° 17:17:35 10° 201° (SSW) 2,437 6.3 -12.6°
Sets 17:20:00 0° 197° (SSW) 3,377 7.0 -12.2°
